Location: Bieg
(49.3499°N, 10.3835°E)
Time: 01:57:49
(UTC+00:00)

Genesis I - Pass Details

Date: 23 May 2024
Orbit: 434 x 467 km, 64.5° (Epoch: 12 June)

Event Time Altitude Azimuth Distance (km) Brightness Sun altitude
Exits shadow 02:05:28 16° 217° (SW) 1,256 4.5 -10.5°
Maximum altitude 02:08:11 85° 131° (SE) 459 2.9 -10.2°
Drops below altitude 10° 02:11:46 10° 41° (NE) 1,604 7.4 -9.8°
Sets 02:13:54 0° 41° (NE) 2,489 9.1 -9.6°
